When you browse on this site, cookies collect data to enhance your experience and personalize the content and advertising you see.
Visit our Privacy Policy to learn more. By continuing to use the site, you agree to this use of cookies and data.
  • In Sweden
  • List of Countries
  • For 7 days
  • Water Temperature
  • Weather Map
  • Weather Widgets
  • user-avatar
    Login

    Hourly Weather Tuzla

    Today, 11 December, Wednesday

    Time Temperature Precipitation Wind Pressure Humidity
    00:00 -1°C° 0.5 mm 2 mps 723 mmHg 96%
    01:00 +1°C° 0 mm 1 mps 723 mmHg 94%
    02:00 +1°C° 0.1 mm 1 mps 723 mmHg 94%
    03:00 0°C° 0.1 mm 1 mps 722 mmHg 94%
    04:00 0°C° 0.1 mm 1 mps 722 mmHg 94%
    05:00 0°C° 0 mm 1 mps 722 mmHg 93%
    06:00 0°C° 0 mm 1 mps 722 mmHg 93%
    07:00 -1°C° 0 mm 1 mps 722 mmHg 92%
    08:00 0°C° 0 mm 1 mps 722 mmHg 89%
    09:00 +1°C° 0 mm 1 mps 722 mmHg 86%
    10:00 +1°C° 0 mm 1 mps 722 mmHg 84%
    11:00 +2°C° 0 mm 1 mps 721 mmHg 84%
    12:00 +2°C° 0 mm 1 mps 720 mmHg 85%
    13:00 +2°C° 0 mm 1 mps 720 mmHg 85%
    14:00 +2°C° 0 mm 1 mps 719 mmHg 87%
    15:00 +2°C° 0 mm 1 mps 719 mmHg 88%
    16:00 +2°C° 0 mm 1 mps 718 mmHg 90%
    17:00 +1°C° 0 mm 1 mps 718 mmHg 91%
    18:00 +1°C° 0 mm 1 mps 718 mmHg 93%
    19:00 +1°C° 0 mm 1 mps 718 mmHg 94%
    20:00 0°C° 0 mm 1 mps 717 mmHg 94%
    21:00 -1°C° 0 mm 0 mps 717 mmHg 95%
    22:00 -1°C° 0 mm 0 mps 716 mmHg 95%
    23:00 -1°C° 0 mm 0 mps 716 mmHg 95%

    Tomorrow, 12 December, Thursday

    Time Temperature Precipitation Wind Pressure Humidity
    00:00 0°C° 0 mm 1 mps 715 mmHg 94%
    01:00 0°C° 0 mm 1 mps 715 mmHg 94%
    02:00 0°C° 0 mm 1 mps 714 mmHg 94%
    03:00 -1°C° 0 mm 0 mps 714 mmHg 94%
    04:00 -1°C° 0 mm 0 mps 713 mmHg 94%
    05:00 -1°C° 0 mm 0 mps 713 mmHg 94%
    06:00 -1°C° 0 mm 0 mps 713 mmHg 93%
    07:00 -1°C° 0 mm 0 mps 713 mmHg 93%
    08:00 +1°C° 0 mm 0 mps 713 mmHg 90%
    09:00 +2°C° 0 mm 0 mps 713 mmHg 86%
    10:00 +3°C° 0 mm 0 mps 713 mmHg 83%
    11:00 +4°C° 0 mm 1 mps 713 mmHg 85%
    12:00 +4°C° 0 mm 1 mps 713 mmHg 88%
    13:00 +4°C° 0 mm 1 mps 713 mmHg 91%
    14:00 +4°C° 0.1 mm 1 mps 712 mmHg 93%
    15:00 +3°C° 0.1 mm 1 mps 712 mmHg 95%
    16:00 +3°C° 0.1 mm 1 mps 712 mmHg 98%
    17:00 +3°C° 0 mm 1 mps 712 mmHg 98%
    18:00 +2°C° 0 mm 0 mps 712 mmHg 98%
    19:00 +2°C° 0 mm 0 mps 712 mmHg 98%
    20:00 +2°C° 0.1 mm 0 mps 712 mmHg 98%
    21:00 +3°C° 0.1 mm 0 mps 711 mmHg 98%
    22:00 +3°C° 0.1 mm 0 mps 711 mmHg 99%
    23:00 +3°C° 0 mm 0 mps 711 mmHg 98%

    Day after tomorrow, 13 December, Friday

    Time Temperature Precipitation Wind Pressure Humidity
    00:00 +3°C° 0 mm 0 mps 710 mmHg 98%
    01:00 +2°C° 0 mm 0 mps 710 mmHg 98%
    02:00 +3°C° 0.1 mm 0 mps 709 mmHg 98%
    03:00 +4°C° 0.1 mm 1 mps 709 mmHg 98%
    04:00 +4°C° 0.1 mm 1 mps 708 mmHg 98%
    05:00 +4°C° 0.2 mm 1 mps 708 mmHg 97%
    06:00 +4°C° 0.2 mm 1 mps 708 mmHg 97%
    07:00 +4°C° 0.2 mm 1 mps 707 mmHg 97%
    08:00 +5°C° 0 mm 1 mps 707 mmHg 94%
    09:00 +5°C° 0 mm 2 mps 707 mmHg 91%
    10:00 +5°C° 0 mm 2 mps 707 mmHg 88%
    11:00 +6°C° 0 mm 2 mps 707 mmHg 84%
    12:00 +7°C° 0 mm 2 mps 706 mmHg 81%
    13:00 +8°C° 0 mm 2 mps 706 mmHg 78%
    14:00 +7°C° 0 mm 2 mps 705 mmHg 82%
    15:00 +6°C° 0 mm 2 mps 705 mmHg 85%
    16:00 +5°C° 0 mm 2 mps 704 mmHg 89%
    17:00 +4°C° 0 mm 2 mps 704 mmHg 90%
    18:00 +4°C° 0 mm 2 mps 703 mmHg 90%
    19:00 +3°C° 0 mm 2 mps 703 mmHg 91%
    20:00 +3°C° 0 mm 2 mps 703 mmHg 90%
    21:00 +4°C° 0 mm 1 mps 703 mmHg 89%
    22:00 +4°C° 0 mm 1 mps 703 mmHg 89%
    23:00 +4°C° 0.1 mm 1 mps 703 mmHg 89%

    14 December, Saturday

    Time Temperature Precipitation Wind Pressure Humidity
    00:00 +4°C° 0.1 mm 1 mps 703 mmHg 89%
    01:00 +4°C° 0.1 mm 1 mps 703 mmHg 89%
    02:00 +4°C° 0.5 mm 1 mps 703 mmHg 91%
    03:00 +4°C° 0.5 mm 1 mps 704 mmHg 94%
    04:00 +4°C° 0.5 mm 1 mps 704 mmHg 96%
    05:00 +3°C° 0.2 mm 2 mps 705 mmHg 96%
    06:00 +3°C° 0.2 mm 2 mps 707 mmHg 96%
    07:00 +3°C° 0.2 mm 2 mps 708 mmHg 97%
    08:00 +3°C° 0.2 mm 2 mps 709 mmHg 97%
    09:00 +3°C° 0.2 mm 2 mps 710 mmHg 96%
    10:00 +3°C° 0.2 mm 2 mps 711 mmHg 96%
    11:00 +3°C° 0.1 mm 2 mps 712 mmHg 96%
    12:00 +3°C° 0.1 mm 2 mps 713 mmHg 96%
    13:00 +4°C° 0.1 mm 1 mps 713 mmHg 96%
    14:00 +4°C° 0 mm 1 mps 714 mmHg 96%
    15:00 +5°C° 0 mm 1 mps 715 mmHg 96%
    16:00 +4°C° 0 mm 0 mps 715 mmHg 96%
    17:00 +3°C° 0 mm 0 mps 716 mmHg 95%
    18:00 +4°C° 0 mm 1 mps 717 mmHg 95%
    19:00 +4°C° 0 mm 1 mps 718 mmHg 94%
    20:00 +4°C° 0 mm 1 mps 718 mmHg 93%
    21:00 +3°C° 0 mm 1 mps 719 mmHg 93%
    22:00 +2°C° 0 mm 2 mps 719 mmHg 92%
    23:00 +2°C° 0 mm 2 mps 719 mmHg 90%

    15 December, Sunday

    Time Temperature Precipitation Wind Pressure Humidity
    00:00 +2°C° 0 mm 2 mps 719 mmHg 88%
    01:00 +2°C° 0 mm 2 mps 720 mmHg 87%
    02:00 +2°C° 0 mm 2 mps 720 mmHg 83%
    03:00 +3°C° 0 mm 2 mps 720 mmHg 80%
    04:00 +3°C° 0 mm 2 mps 720 mmHg 77%
    05:00 +3°C° 0 mm 2 mps 720 mmHg 75%
    06:00 +3°C° 0 mm 2 mps 720 mmHg 73%
    07:00 +3°C° 0 mm 2 mps 720 mmHg 71%
    08:00 +5°C° 0 mm 2 mps 720 mmHg 68%
    09:00 +7°C° 0 mm 2 mps 721 mmHg 66%
    10:00 +8°C° 0 mm 2 mps 721 mmHg 64%
    11:00 +10°C° 0 mm 1 mps 721 mmHg 64%
    12:00 +11°C° 0 mm 1 mps 721 mmHg 64%
    13:00 +12°C° 0 mm 1 mps 721 mmHg 64%
    14:00 +11°C° 0 mm 1 mps 721 mmHg 67%
    15:00 +9°C° 0 mm 1 mps 722 mmHg 71%
    16:00 +8°C° 0 mm 1 mps 722 mmHg 74%
    17:00 +8°C° 0 mm 1 mps 722 mmHg 75%
    18:00 +7°C° 0 mm 1 mps 723 mmHg 75%
    19:00 +6°C° 0 mm 1 mps 723 mmHg 76%
    20:00 +6°C° 0 mm 1 mps 723 mmHg 75%
    21:00 +6°C° 0 mm 1 mps 724 mmHg 74%
    22:00 +5°C° 0 mm 1 mps 724 mmHg 74%
    23:00 +5°C° 0 mm 1 mps 725 mmHg 74%

    16 December, Monday

    Time Temperature Precipitation Wind Pressure Humidity
    00:00 +5°C° 0 mm 1 mps 725 mmHg 75%
    01:00 +5°C° 0 mm 1 mps 725 mmHg 76%
    02:00 +5°C° 0 mm 1 mps 725 mmHg 77%
    03:00 +4°C° 0 mm 1 mps 725 mmHg 78%
    04:00 +4°C° 0 mm 1 mps 725 mmHg 78%
    05:00 +4°C° 0 mm 1 mps 725 mmHg 79%
    06:00 +4°C° 0 mm 1 mps 725 mmHg 80%
    07:00 +4°C° 0 mm 1 mps 725 mmHg 80%
    08:00 +6°C° 0 mm 1 mps 726 mmHg 78%
    09:00 +7°C° 0 mm 1 mps 726 mmHg 75%
    10:00 +9°C° 0 mm 1 mps 726 mmHg 73%
    11:00 +10°C° 0 mm 1 mps 726 mmHg 71%
    12:00 +11°C° 0 mm 1 mps 725 mmHg 69%
    13:00 +12°C° 0 mm 1 mps 725 mmHg 67%
    14:00 +10°C° 0 mm 1 mps 725 mmHg 72%
    15:00 +9°C° 0 mm 1 mps 725 mmHg 78%
    16:00 +8°C° 0 mm 1 mps 725 mmHg 83%
    17:00 +7°C° 0 mm 2 mps 725 mmHg 85%
    18:00 +6°C° 0 mm 2 mps 724 mmHg 87%
    19:00 +6°C° 0 mm 2 mps 724 mmHg 89%
    20:00 +6°C° 0 mm 2 mps 724 mmHg 90%
    21:00 +5°C° 0 mm 2 mps 724 mmHg 90%
    22:00 +5°C° 0 mm 2 mps 724 mmHg 90%
    23:00 +5°C° 0 mm 2 mps 724 mmHg 90%
    Show more